Voltar ao catálogo

STARLINK-38299

AtivoComunicaçõesSSO
NORAD 100316·PAYLOAD·🇺🇸 United States

Lançado Aug 12, 2026 de Vandenberg Space Force Base

Loading…

Próximas Passagens (próximas 24 horas)

TLE

AtualizadoSource: Space-Track

Época: Sep 14, 2026, 21:41 UTC

1 A0316U 26184R   26257.90388850  .00017170  00000-0  53311-3 0  9996
2 A0316  97.2839 123.1172 0001383 106.6423 253.4972 15.33436396  6500

Acompanhe STARLINK-38299 em tempo real com AllMySat

Download on the App Store